Flag for Italy Weather past 2 weeks in Ancona, Italy

Now
63 °F

Sunny.


Feels Like: 63 °F
Forecast: 53 / 70 °F
Wind: 10 mph from Northwest

Location: Falconara

Current Time: Apr 21, 2015 at 1:53:13 PM

Latest Report: Apr 21, 2015 at 12:50 PM


Visibility: 10 mi

Pressure: 30.27 "Hg

Humidity: 52%

Dew point: 45 °F

Location of AnconaLocation

Historic Weather in Ancona — Graph

°F

Ancona temperature yesterday

Maximum temperature yesterday: 59 °F (at 1:50 PM)
Minimum temperature yesterday: 37 °F (at 6:50 AM)
Average temperature yesterday: 50 °F

Past Weeks' High & Low Weather Summary

 TemperatureHumidityPressure
High77 °F (Apr 15, 12:50 PM)100% (Apr 18, 11:50 PM)30.45 "Hg (Apr 18, 11:50 PM)
Low34 °F (Apr 8, 4:50 AM)25% (Apr 8, 4:50 PM)29.92 "Hg (Apr 18, 2:50 AM)
Average54 °F65%30.22 "Hg
* Reported Apr 6 12:50 PM — Apr 21 12:50 PM, Ancona, Weather by CustomWeather, © 2015

Note: Actual official high and low records may vary slightly from our data, if they occured in-between our weather recording intervals... More about our weather records

Advertising

Ancona weather history for previous 24 hours

 ConditionsComfort  
Time TempWeatherWind HumidityBarometerVisibility
12:50 PM
Tue, Apr 21
63 °FSunny.10 mph52%30.27 "Hg10 mi
11:50 AM63 °FSunny.9 mph56%30.27 "Hg10 mi
10:50 AM63 °FPassing clouds.8 mph49%30.27 "HgN/A
9:50 AM61 °FSunny.2 mph55%30.24 "Hg10 mi
8:50 AM55 °FSunny.2 mph63%30.24 "Hg10 mi
7:50 AM48 °FSunny.5 mph76%30.21 "Hg10 mi
6:50 AM41 °FClear.6 mph87%30.18 "Hg10 mi
5:50 AM43 °FClear.3 mph81%30.18 "Hg10 mi
4:50 AM43 °FClear.5 mph81%30.18 "Hg10 mi
3:50 AM43 °FClear.6 mph76%30.15 "Hg10 mi
2:50 AM45 °FClear.5 mph81%30.15 "Hg10 mi
1:50 AM43 °FClear.5 mph87%30.15 "Hg10 mi
12:50 AM45 °FClear.3 mph81%30.15 "Hg10 mi
11:50 PM
Mon, Apr 20
45 °FClear.5 mph81%30.12 "Hg10 mi
10:50 PM46 °FClear.6 mph82%30.12 "Hg10 mi
9:50 PM46 °FPassing clouds.3 mph82%30.12 "HgN/A
8:50 PM52 °FSunny.3 mph72%30.09 "Hg10 mi
7:50 PM54 °FSunny.2 mph67%30.09 "Hg10 mi
6:50 PM57 °FSunny.7 mph59%30.07 "Hg10 mi
5:50 PM59 °FPassing clouds.7 mph55%30.07 "HgN/A
4:50 PM59 °FSunny.9 mph55%30.09 "Hg10 mi
3:50 PM59 °FSunny.10 mph59%30.09 "Hg10 mi
2:50 PM59 °FPassing clouds.12 mph68%30.12 "HgN/A
1:50 PM59 °FSunny.12 mph59%30.15 "Hg10 mi
Weather by CustomWeather, © 2015

See weather overviewHow to use our weather pages